Regional Weather Roundup
Issued by NWS

Home | Current Version | Previous Version | Text Only | Print | Product List | Glossary On
Versions: 1 2 3 4 5 6 7 8 9 10 11 12 13 14 15 16 17 18 19 20 21 22 23 24 25 26 27 28 29 30 31 32 33 34 35 36 37 38 39 40 41 42 43 44 45 46 47 48 49 50
000
ASUS45 KBOU 130907
RWRCO

WEATHER ROUNDUP FOR COLORADO
NATIONAL WEATHER SERVICE DENVER/BOULDER CO
200 AM MST SAT FEB 13 2016

NOTE: "FAIR" INDICATES FEW OR NO CLOUDS BELOW 12000 FEET WITH NO
SIGNIFICANT WEATHER AND/OR OBSTRUCTIONS TO VISIBILITY.

COZ001>005-013-030-031-131000-
...NORTHWEST COLORADO...

CITY           SKY/WX    TMP DP  RH WIND       PRES   REMARKS
CRAIG          FAIR      10   7  87 CALM      30.27F
HAYDEN         FAIR      27  16  63 E12       30.26F WCI  16
MEEKER         FAIR      21  15  78 CALM      30.27F
MOUNT WERNER   NOT AVBL
STEAMBOAT SPGS FAIR      20  17  88 CALM      30.28F
WALDEN         FAIR      34  19  55 S10       30.27F WCI  26
$$

COZ006>008-011-131000-
...WEST CENTRAL VALLEYS...

CITY           SKY/WX    TMP DP  RH WIND       PRES   REMARKS
GRAND JUNCTION FAIR      29  24  82 CALM      30.30F
MONTROSE       FAIR      28  23  81 SE8       30.33F WCI  20
EAGLE          FAIR      23  21  93 CALM      30.35S
RIFLE          FAIR      24  18  77 CALM      30.32F
DELTA          FAIR      31  26  83 CALM      30.32S
NUCLA          FAIR      32  25  74 E6        30.35S WCI  26
$$

COZ017>023-064>068-131000-
...SOUTHWEST COLORADO...

CITY           SKY/WX    TMP DP  RH WIND       PRES   REMARKS
DURANGO        FAIR      23  18  81 N6        30.35F WCI  16
CORTEZ         FAIR      24  19  81 E7        30.33F WCI  16
PAGOSA SPRINGS FAIR      26  20  79 CALM      30.38F
TELLURIDE      FAIR      36  19  50 SE6       30.42S
WOLF CREEK PAS FAIR      30  14  51 SW20      30.51F WCI  18
$$

COZ009-010-012-014-032>034-037-058>063-131000-
...CENTRAL COLORADO...

CITY           SKY/WX    TMP DP  RH WIND       PRES   REMARKS
ASPEN          FAIR      27  18  69 S7        30.32F WCI  19
BUENA VISTA    FAIR      28  22  79 W3        30.31F
COPPER MTN     FAIR      34  14  44 SW15G28   30.43F WCI  24
BERTHOUD PASS  FAIR      25  14  63 NW35      30.37F WCI   7
COTTONWOOD PAS FAIR      43  14  31 W8G17     30.36F
GUNNISON       FAIR       1 N/A N/A NE3       30.47S
KREMMLING      FAIR       3   0  85 CALM      30.36S
LEADVILLE      FAIR      30  14  51 NE7       30.35F WCI  23
MONARCH PASS   FAIR      28  16  59 W32       30.54F WCI  12
SALIDA         NOT AVBL
SUNLIGHT       FAIR      32  21  64 CALM      30.43F
WILKERSON PASS FAIR      30  18  59 SW13G18   30.39F WCI  20
$$

COZ069>075-131000-
...SAN LUIS VALLEY/SANGRE DE CRISTO MOUNTAINS...

CITY           SKY/WX    TMP DP  RH WIND       PRES   REMARKS
ALAMOSA        FAIR      25  21  85 CALM      30.35F
LA VETA PASS   FAIR      34  19  55 MISG      30.37F
SAGUACHE       FAIR      28  23  80 NW8       30.37S WCI  20
$$

COZ035-036-038>040-131000-
...NORTHERN COLORADO FRONT RANGE...

CITY           SKY/WX    TMP DP  RH WIND       PRES   REMARKS
DENVER INTL AP FOG       28  26  92 CALM      30.15F VSB 1/8
DMNS CITY PARK   N/A     31  30  97 N1        30.15F
AURORA         MOCLDY    32  32  99 NW2       30.16F
FRONT RANGE AP FOG       28  27  93 W3        30.16F VSB 1/2
ERIE MUNI ARPT FOG       31  31 100 CALM      30.17F VSB 1/4
BOULDER MUN AP SNOW      32  32 100 CALM      30.17S VSB 1/4
CENTENNIAL     MOCLDY    35  30  82 CALM      30.15F
BROOMFIELD     SNOW      32  32 100 N3        30.16F VSB 1/4
FORT COLLINS   CLOUDY    30  28  93 CALM      30.18S VSB 1/2
LONGMONT       FOG       33  32  96 CALM      30.19F VSB 1/4
$$

COZ041-046-047-076>085-087-088-131000-
...PIKES PEAK/PALMER DIVIDE AND SOUTHERN FOOTHILLS...

CITY           SKY/WX    TMP DP  RH WIND       PRES   REMARKS
COLO. SPRINGS  MOCLDY    32  27  81 W7        30.22F WCI  26
A. F. ACADEMY  MOCLDY    30  26  83 N5        30.21F WCI  26
SCHRIEVER AFB  FAIR      32  27  81 NW7       30.22F WCI  26
ELLICOTT       LGT RAIN N/A N/A N/A VRB3      30.20F
FALCON         FAIR      32  26  76 W6        30.22F WCI  27
FORT CARSON    FAIR      30  27  88 SE5       30.20F WCI  25
LIMON          CLOUDY    27  27 100 S12       30.21F FOG     WCI  17
MONUMENT HILL  FAIR      36  27  69 SW10      30.20F
TRINIDAD       FAIR      45  21  38 CALM      30.21S
$$

COZ042>045-048>051-090-091-131000-
...NORTHEAST COLORADO...

CITY           SKY/WX    TMP DP  RH WIND       PRES   REMARKS
GREELEY ARPT   CLOUDY    30  30 100 NE3       30.18F
AKRON          CLOUDY    30  30 100 S18       30.19F WCI  18
BURLINGTON     CLOUDY    26  24  92 S21       30.26F FOG     WCI  12
WRAY           CLOUDY   N/A N/A N/A SE10      30.28F FOG
STERLING       CLOUDY    32  32 100 S13       30.19F WCI  22
HOLYOKE        CLOUDY    34  32  93 S13       30.27F FOG     WCI  25
FORT MORGAN    FAIR      31  30  96 SE8       30.17F WCI  23
$$

COZ086-089-092>099-131000-
...SOUTHEAST COLORADO...

CITY           SKY/WX    TMP DP  RH WIND       PRES   REMARKS
PUEBLO         FAIR      32  26  78 CALM      30.24F
LA JUNTA       CLOUDY    29  26  89 NE9       30.23S WCI  20
LAMAR          CLOUDY    29  26  89 SE16G22   30.25F WCI  17
SPRINGFIELD      N/A     26  25  96 SE14      30.25F WCI  14
$$



USA.gov is the U.S. government's official web portal to all federal, state and local government web resources and services.